Location: Lecco
(45.8566°N, 9.3977°E)
Time: 07:32:03
(UTC+02:00)

A-11 Canister half - Pass Details

Date: 21 August 2020
Orbit: 1514 x 1686 km, 47.2° (Epoch: 21 September)

Event Time Altitude Azimuth Distance (km) Brightness Sun altitude
Rises 22:53:08 0° 293° (WNW) 4,812 12.7 -23.0°
Reaches altitude 10° 22:56:31 10° 285° (WNW) 3,849 11.8 -23.4°
Maximum altitude 23:05:09 36° 224° (SW) 2,397 9.9 -24.4°
Enters shadow 23:09:06 27° 184° (S) 2,785 9.9 -24.8°
